East Swanzey, NH

10:02 AM EST on February 06, 2016 (GMT -0500)
Dillant-Hopkins

Weather History for KEEN - March, 2013

Change the Weather History Date:

Wednesday, March 20, 2013

  Actual Average Record
Temperature  
Mean Temperature 26 °F -  
Max Temperature 33 °F 46 °F 78 °F (2012)
Min Temperature 19 °F 22 °F -9 °F (1993)
Degree Days  
Heating Degree Days 39    
Moisture  
Dew Point 17 °F    
Average Humidity 67    
Maximum Humidity 86    
Minimum Humidity 48    
Precipitation  
Precipitation 0.01 in - - ()
Sea Level Pressure  
Sea Level Pressure 29.74 in    
Wind  
Wind Speed 5 mph (WSW)    
Max Wind Speed 18 mph    
Max Gust Speed 30 mph    
Visibility 10 miles    
Events      
Averages and records for this station are not official NWS values.
T = Trace of Precipitation, MM = Missing Value Source: NWS Daily Summary

Daily Weather History Graph

Daily Weather History Graph

Search for Another Location

Airport or City:

Trip Planner

Search our weather history database for the weather conditions in past years. The results will help you decide how hot, cold, wet, or windy it might be!

Date:

Astronomy

Mar. 20, 2013 Rise Set
Actual Time 6:51 AM EDT 7:01 PM EDT
Civil Twilight 6:23 AM EDT 7:29 PM EDT
Nautical Twilight 5:50 AM EDT 8:03 PM EDT
Astronomical Twilight 5:16 AM EDT 8:37 PM EDT
Moon 12:26 PM EDT (3/20) 2:37 AM EDT (3/20)
Length of Visible Light 13h 06m
Length of Day
12h 09m
First Quarter, 59% of the Moon is Illuminated
Mar 20
First Quarter
Mar 27
Full
Apr 3
Last Quarter
Apr 10
New
Apr 18
First Quarter

Hourly Weather History & Observations

Time (EDT) Temp. Windchill Dew Point Humidity Pressure Visibility Wind Dir Wind Speed Gust Speed Precip Events Conditions
12:15 AM 26.6 °F 22.6 °F 21.2 °F 80% 29.72 in 9.0 mi North 3.5 mph - N/A   Overcast
12:55 AM 26.6 °F 21.2 °F 23.0 °F 86% 29.72 in 3.0 mi North 4.6 mph - N/A   Overcast
1:15 AM 26.6 °F 21.2 °F 21.2 °F 80% 29.72 in 8.0 mi North 4.6 mph - N/A   Overcast
1:35 AM 26.6 °F - 21.2 °F 80% 29.71 in 10.0 mi Calm Calm - N/A   Mostly Cloudy
1:55 AM 24.8 °F - 19.4 °F 80% 29.71 in 10.0 mi Calm Calm - 0.01 in   Partly Cloudy
2:15 AM 23.0 °F - 19.4 °F 86% 29.71 in 6.0 mi Calm Calm - N/A   Scattered Clouds
2:35 AM 23.0 °F - 19.4 °F 86% 29.71 in 10.0 mi Calm Calm - N/A   Mostly Cloudy
2:55 AM 23.0 °F - 19.4 °F 86% 29.71 in 10.0 mi Calm Calm - N/A   Overcast
3:35 AM 23.0 °F - 19.4 °F 86% 29.71 in 10.0 mi Calm Calm - N/A   Overcast
3:55 AM 24.8 °F - 19.4 °F 80% 29.71 in 10.0 mi Calm Calm - N/A   Overcast
4:15 AM 23.0 °F 18.4 °F 17.6 °F 80% 29.71 in 10.0 mi SSW 3.5 mph - N/A   Overcast
4:35 AM 24.8 °F 20.5 °F 17.6 °F 74% 29.71 in 10.0 mi South 3.5 mph - N/A   Overcast
4:55 AM 24.8 °F 19.1 °F 17.6 °F 74% 29.71 in 10.0 mi SW 4.6 mph - N/A   Overcast
5:15 AM 24.8 °F 19.1 °F 17.6 °F 74% 29.72 in 10.0 mi South 4.6 mph - N/A   Overcast
5:55 AM 23.0 °F 15.8 °F 17.6 °F 80% 29.72 in 10.0 mi South 5.8 mph - N/A   Mostly Cloudy
6:15 AM 21.2 °F - 15.8 °F 80% 29.73 in 10.0 mi Calm Calm - N/A   Scattered Clouds
6:35 AM 19.4 °F - 15.8 °F 86% 29.73 in 10.0 mi Calm Calm - N/A   Mostly Cloudy
7:15 AM 21.2 °F - 17.6 °F 86% 29.74 in 10.0 mi Calm Calm - N/A   Partly Cloudy
7:35 AM 21.2 °F - 15.8 °F 80% 29.74 in 10.0 mi Calm Calm - N/A   Clear
7:55 AM 21.2 °F 14.9 °F 15.8 °F 80% 29.75 in 10.0 mi South 4.6 mph - N/A   Clear
8:35 AM 24.8 °F 19.1 °F 17.6 °F 74% 29.74 in 10.0 mi SSW 4.6 mph - N/A   Clear
8:55 AM 26.6 °F 16.8 °F 17.6 °F 69% 29.74 in 10.0 mi WSW 10.4 mph - N/A   Clear
9:15 AM 26.6 °F 21.2 °F 17.6 °F 69% 29.74 in 10.0 mi West 4.6 mph - N/A   Clear
9:35 AM 26.6 °F 17.5 °F 17.6 °F 69% 29.74 in 10.0 mi West 9.2 mph - N/A   Scattered Clouds
9:55 AM 28.4 °F 18.5 °F 17.6 °F 64% 29.74 in 10.0 mi WSW 11.5 mph 17.3 mph N/A   Scattered Clouds
10:15 AM 28.4 °F 18.5 °F 15.8 °F 59% 29.74 in 10.0 mi West 11.5 mph 16.1 mph N/A   Mostly Cloudy
10:55 AM 28.4 °F 21.2 °F 17.6 °F 64% 29.74 in 10.0 mi WNW 6.9 mph 16.1 mph N/A   Mostly Cloudy
11:35 AM 28.4 °F 18.0 °F 15.8 °F 59% 29.74 in 10.0 mi West 12.7 mph 23.0 mph N/A   Mostly Cloudy
11:55 AM 30.2 °F 20.8 °F 17.6 °F 60% 29.75 in 10.0 mi WNW 11.5 mph 19.6 mph N/A   Mostly Cloudy
12:15 PM 30.2 °F 23.4 °F 17.6 °F 60% 29.75 in 10.0 mi West 6.9 mph 19.6 mph N/A   Overcast
12:35 PM 30.2 °F 20.8 °F 17.6 °F 60% 29.74 in 10.0 mi West 11.5 mph 20.7 mph N/A   Overcast
12:55 PM 32.0 °F 20.5 °F 17.6 °F 55% 29.74 in 10.0 mi West 18.4 mph 26.5 mph N/A   Mostly Cloudy
1:35 PM 33.8 °F 23.9 °F 15.8 °F 48% 29.74 in 10.0 mi West 15.0 mph 29.9 mph N/A   Overcast
1:55 PM 32.0 °F 23.0 °F 15.8 °F 51% 29.74 in 10.0 mi West 11.5 mph 26.5 mph N/A   Overcast
2:15 PM 33.8 °F 26.4 °F 15.8 °F 48% 29.73 in 10.0 mi WSW 9.2 mph 21.9 mph N/A   Overcast
2:55 PM 33.8 °F 25.8 °F 17.6 °F 52% 29.72 in 10.0 mi WSW 10.4 mph 19.6 mph N/A   Overcast
3:15 PM 33.8 °F 25.8 °F 17.6 °F 52% 29.72 in 10.0 mi WSW 10.4 mph 20.7 mph N/A   Overcast
3:35 PM 33.8 °F 26.4 °F 15.8 °F 48% 29.72 in 10.0 mi WSW 9.2 mph - N/A   Overcast
3:55 PM 33.8 °F 26.4 °F 15.8 °F 48% 29.72 in 10.0 mi WSW 9.2 mph 19.6 mph N/A   Mostly Cloudy
4:15 PM 33.8 °F 25.8 °F 15.8 °F 48% 29.72 in 10.0 mi WSW 10.4 mph - N/A   Mostly Cloudy
4:35 PM 33.8 °F 26.4 °F 15.8 °F 48% 29.73 in 10.0 mi West 9.2 mph 23.0 mph N/A   Overcast
4:55 PM 33.8 °F 26.4 °F 17.6 °F 52% 29.73 in 10.0 mi WSW 9.2 mph 23.0 mph N/A   Mostly Cloudy
5:16 PM 33.8 °F 26.4 °F 17.6 °F 52% 29.74 in 10.0 mi WSW 9.2 mph 23.0 mph N/A   Scattered Clouds
5:55 PM 33.8 °F 27.7 °F 15.8 °F 48% 29.74 in 10.0 mi West 6.9 mph - N/A   Mostly Cloudy
6:15 PM 33.8 °F 27.7 °F 17.6 °F 52% 29.75 in 10.0 mi West 6.9 mph - N/A   Overcast
6:35 PM 33.8 °F 28.6 °F 15.8 °F 48% 29.75 in 10.0 mi West 5.8 mph - N/A   Overcast
6:55 PM 33.8 °F 24.8 °F 15.8 °F 48% 29.76 in 10.0 mi West 12.7 mph - N/A   Mostly Cloudy
7:15 PM 32.0 °F 26.4 °F 17.6 °F 55% 29.76 in 10.0 mi WNW 5.8 mph - N/A   Partly Cloudy
7:35 PM 30.2 °F - 15.8 °F 55% 29.77 in 10.0 mi Calm Calm - N/A   Clear
7:55 PM 28.4 °F - 17.6 °F 64% 29.77 in 10.0 mi Calm Calm - N/A   Clear
8:15 PM 26.6 °F - 17.6 °F 69% 29.77 in 10.0 mi Calm Calm - N/A   Clear
8:35 PM 26.6 °F 21.2 °F 15.8 °F 64% 29.78 in 10.0 mi SSW 4.6 mph - N/A   Clear
8:55 PM 26.6 °F 21.2 °F 15.8 °F 64% 29.78 in 10.0 mi SSW 4.6 mph - N/A   Clear
9:15 PM 26.6 °F 20.0 °F 15.8 °F 64% 29.77 in 10.0 mi South 5.8 mph - N/A   Clear
9:35 PM 24.8 °F 15.3 °F 15.8 °F 69% 29.77 in 10.0 mi SSW 9.2 mph - N/A   Clear
9:55 PM 24.8 °F 16.9 °F 15.8 °F 69% 29.78 in 10.0 mi SSW 6.9 mph - N/A   Clear
10:15 PM 21.2 °F 12.6 °F 15.8 °F 80% 29.78 in 10.0 mi South 6.9 mph - N/A   Clear
10:55 PM 24.8 °F 17.9 °F 17.6 °F 74% 29.78 in 10.0 mi SSW 5.8 mph - N/A   Clear
11:15 PM 23.0 °F 15.8 °F 15.8 °F 74% 29.78 in 10.0 mi South 5.8 mph - N/A   Clear
11:35 PM 23.0 °F 14.7 °F 15.8 °F 74% 29.79 in 10.0 mi South 6.9 mph - N/A   Clear
11:55 PM 21.2 °F 14.9 °F 15.8 °F 80% 29.79 in 10.0 mi SW 4.6 mph - N/A   Clear